Time,TemperatureF,DewpointF,PressureIn,WindDirection,WindDirectionDegrees,WindSpeedMPH,WindSpeedGustMPH,Humidity,HourlyPrecipIn,Conditions,Clouds,dailyrainin,SolarRadiationWatts/m^2,SoftwareType,DateUTC
2013-03-18 00:03:00,49.8,0.9,29.92,WNW,288,5.0,9.0,13,0.00,,CLR,0.00,0.00,VWS V14.01,2013-03-18 06:03:00,
2013-03-18 00:08:00,49.8,0.9,29.92,WNW,292,5.0,11.0,13,0.00,,CLR,0.00,0.00,VWS V14.01,2013-03-18 06:08:00,
2013-03-18 00:13:00,49.8,0.9,29.92,WNW,296,5.0,8.0,13,0.00,,CLR,0.00,0.00,VWS V14.01,2013-03-18 06:13:00,
2013-03-18 00:18:00,49.7,0.9,29.93,WNW,288,6.0,7.0,13,0.00,,CLR,0.00,0.00,VWS V14.01,2013-03-18 06:18:00,
2013-03-18 00:23:00,49.6,0.8,29.93,WNW,286,5.0,9.0,13,0.00,,CLR,0.00,0.00,VWS V14.01,2013-03-18 06:23:00,
2013-03-18 00:28:00,49.6,0.8,29.93,WNW,291,6.0,10.0,13,0.00,,CLR,0.00,0.00,VWS V14.01,2013-03-18 06:28:00,
2013-03-18 00:33:00,49.6,0.8,29.93,WNW,300,4.0,9.0,13,0.00,,CLR,0.00,0.00,VWS V14.01,2013-03-18 06:33:00,
2013-03-18 00:38:00,49.6,0.8,29.93,WNW,283,6.0,9.0,13,0.00,,CLR,0.00,0.00,VWS V14.01,2013-03-18 06:38:00,
2013-03-18 00:43:00,49.6,2.4,29.93,WNW,300,8.0,9.0,14,0.00,,CLR,0.00,0.00,VWS V14.01,2013-03-18 06:43:00,
2013-03-18 00:48:00,49.8,2.5,29.93,WNW,286,6.0,11.0,14,0.00,,CLR,0.00,0.00,VWS V14.01,2013-03-18 06:48:00,
2013-03-18 00:53:00,49.9,2.6,29.94,West,275,6.0,11.0,14,0.00,,CLR,0.00,0.00,VWS V14.01,2013-03-18 06:53:00,
2013-03-18 00:58:00,50.1,4.3,29.93,NW,306,9.0,12.0,15,0.00,,CLR,0.00,0.00,VWS V14.01,2013-03-18 06:58:00,
2013-03-18 01:03:00,50.3,5.8,29.93,WNW,298,9.0,13.0,16,0.00,,CLR,0.00,0.00,VWS V14.01,2013-03-18 07:03:00,
2013-03-18 01:08:00,50.5,6.0,29.93,WNW,298,2.0,11.0,16,0.00,,CLR,0.00,0.00,VWS V14.01,2013-03-18 07:08:00,
2013-03-18 01:13:00,50.5,6.0,29.93,WNW,300,7.0,10.0,16,0.00,,CLR,0.00,0.00,VWS V14.01,2013-03-18 07:13:00,
2013-03-18 01:18:00,50.5,6.0,29.93,WNW,291,3.0,9.0,16,0.00,,CLR,0.00,0.00,VWS V14.01,2013-03-18 07:18:00,
2013-03-18 01:23:00,50.4,5.9,29.94,WNW,289,7.0,7.0,16,0.00,,CLR,0.00,0.00,VWS V14.01,2013-03-18 07:23:00,
2013-03-18 01:28:00,50.3,7.2,29.94,West,281,1.0,7.0,17,0.00,,CLR,0.00,0.00,VWS V14.01,2013-03-18 07:28:00,
2013-03-18 01:34:00,50.0,6.9,29.94,West,270,1.0,8.0,17,0.00,,CLR,0.00,0.00,VWS V14.01,2013-03-18 07:34:00,
2013-03-18 01:39:00,49.8,6.8,29.95,West,270,0.0,4.0,17,0.00,,CLR,0.00,0.00,VWS V14.01,2013-03-18 07:39:00,
2013-03-18 01:44:00,49.4,5.1,29.95,SW,229,1.0,4.0,16,0.00,,CLR,0.00,0.00,VWS V14.01,2013-03-18 07:44:00,
2013-03-18 01:49:00,48.9,4.7,29.96,WSW,247,5.0,5.0,16,0.00,,CLR,0.00,0.00,VWS V14.01,2013-03-18 07:49:00,
2013-03-18 01:54:00,48.7,5.8,29.96,WSW,240,0.0,1.0,17,0.00,,CLR,0.00,0.00,VWS V14.01,2013-03-18 07:54:00,
2013-03-18 01:59:00,48.6,5.8,29.96,WSW,237,3.0,4.0,17,0.00,,CLR,0.00,0.00,VWS V14.01,2013-03-18 07:59:00,
2013-03-18 02:04:00,48.8,5.9,29.96,West,281,2.0,7.0,17,0.00,,CLR,0.00,0.00,VWS V14.01,2013-03-18 08:04:00,
2013-03-18 02:09:00,48.8,7.2,29.96,West,266,0.0,1.0,18,0.00,,CLR,0.00,0.00,VWS V14.01,2013-03-18 08:09:00,
2013-03-18 02:14:00,48.8,7.2,29.97,WNW,282,0.0,7.0,18,0.00,,CLR,0.00,0.00,VWS V14.01,2013-03-18 08:14:00,
2013-03-18 02:19:00,48.9,7.3,29.97,WNW,286,0.0,5.0,18,0.00,,CLR,0.00,0.00,VWS V14.01,2013-03-18 08:19:00,
2013-03-18 02:24:00,48.9,8.5,29.97,WNW,292,0.0,5.0,19,0.00,,CLR,0.00,0.00,VWS V14.01,2013-03-18 08:24:00,
2013-03-18 02:29:00,48.8,7.2,29.97,WNW,292,0.0,0.0,18,0.00,,CLR,0.00,0.00,VWS V14.01,2013-03-18 08:29:00,
2013-03-18 02:34:00,48.7,8.3,29.97,WNW,291,0.0,5.0,19,0.00,,CLR,0.00,0.00,VWS V14.01,2013-03-18 08:34:00,
2013-03-18 02:40:00,48.6,8.2,29.97,WNW,291,1.0,1.0,19,0.00,,CLR,0.00,0.00,VWS V14.01,2013-03-18 08:40:00,
2013-03-18 02:45:00,48.5,8.1,29.98,WNW,291,0.0,0.0,19,0.00,,CLR,0.00,0.00,VWS V14.01,2013-03-18 08:45:00,
2013-03-18 02:50:00,48.4,9.2,29.98,WNW,291,0.0,0.0,20,0.00,,CLR,0.00,0.00,VWS V14.01,2013-03-18 08:50:00,
2013-03-18 02:55:00,48.2,9.0,29.97,WNW,291,0.0,0.0,20,0.00,,CLR,0.00,0.00,VWS V14.01,2013-03-18 08:55:00,
2013-03-18 03:00:00,48.0,8.9,29.98,WNW,291,0.0,1.0,20,0.00,,CLR,0.00,0.00,VWS V14.01,2013-03-18 09:00:00,
2013-03-18 03:05:00,47.8,8.7,29.97,WNW,291,0.0,1.0,20,0.00,,CLR,0.00,0.00,VWS V14.01,2013-03-18 09:05:00,
2013-03-18 03:10:00,47.6,8.5,29.97,WNW,291,0.0,2.0,20,0.00,,CLR,0.00,0.00,VWS V14.01,2013-03-18 09:10:00,
2013-03-18 03:15:00,47.2,8.2,29.97,WNW,291,3.0,3.0,20,0.00,,CLR,0.00,0.00,VWS V14.01,2013-03-18 09:15:00,
2013-03-18 03:20:00,46.9,7.9,29.97,WNW,291,0.0,0.0,20,0.00,,CLR,0.00,0.00,VWS V14.01,2013-03-18 09:20:00,
2013-03-18 03:25:00,46.6,8.8,29.97,WNW,291,1.0,2.0,21,0.00,,CLR,0.00,0.00,VWS V14.01,2013-03-18 09:25:00,
2013-03-18 03:30:00,46.2,8.4,29.97,WNW,291,1.0,2.0,21,0.00,,CLR,0.00,0.00,VWS V14.01,2013-03-18 09:30:00,
2013-03-18 03:35:00,46.0,8.3,29.97,WNW,291,1.0,2.0,21,0.00,,CLR,0.00,0.00,VWS V14.01,2013-03-18 09:35:00,
2013-03-18 03:40:00,45.8,9.1,29.97,NW,313,2.0,6.0,22,0.00,,CLR,0.00,0.00,VWS V14.01,2013-03-18 09:40:00,
2013-03-18 03:45:00,45.7,9.1,29.98,WNW,292,4.0,5.0,22,0.00,,CLR,0.00,0.00,VWS V14.01,2013-03-18 09:45:00,
2013-03-18 03:50:00,45.6,9.9,29.98,West,280,0.0,6.0,23,0.00,,CLR,0.00,0.00,VWS V14.01,2013-03-18 09:50:00,
2013-03-18 03:55:00,45.6,9.9,29.98,West,280,0.0,0.0,23,0.00,,CLR,0.00,0.00,VWS V14.01,2013-03-18 09:55:00,
2013-03-18 04:00:00,45.5,9.9,29.98,West,280,2.0,2.0,23,0.00,,CLR,0.00,0.00,VWS V14.01,2013-03-18 10:00:00,
2013-03-18 04:05:00,45.3,9.7,29.98,SSW,209,0.0,2.0,23,0.00,,CLR,0.00,0.00,VWS V14.01,2013-03-18 10:05:00,
2013-03-18 04:10:00,45.2,9.6,29.98,SSW,209,0.0,0.0,23,0.00,,CLR,0.00,0.00,VWS V14.01,2013-03-18 10:10:00,
2013-03-18 04:15:00,45.1,9.5,29.98,SSW,209,0.0,0.0,23,0.00,,CLR,0.00,0.00,VWS V14.01,2013-03-18 10:15:00,
2013-03-18 04:20:00,45.0,10.4,29.98,SSW,209,0.0,0.0,24,0.00,,CLR,0.00,0.00,VWS V14.01,2013-03-18 10:20:00,
2013-03-18 04:25:00,44.6,10.1,29.98,SSW,209,0.0,0.0,24,0.00,,CLR,0.00,0.00,VWS V14.01,2013-03-18 10:25:00,
2013-03-18 04:30:00,44.3,9.8,29.98,SSW,209,0.0,0.0,24,0.00,,CLR,0.00,0.00,VWS V14.01,2013-03-18 10:30:00,
2013-03-18 04:36:00,44.0,9.5,29.98,SSW,209,0.0,0.0,24,0.00,,CLR,0.00,0.00,VWS V14.01,2013-03-18 10:36:00,
2013-03-18 04:41:00,43.6,10.1,29.98,SSW,209,0.0,0.0,25,0.00,,CLR,0.00,0.00,VWS V14.01,2013-03-18 10:41:00,
2013-03-18 04:46:00,43.1,9.7,29.98,SSW,209,0.0,0.0,25,0.00,,CLR,0.00,0.00,VWS V14.01,2013-03-18 10:46:00,
2013-03-18 04:51:00,42.4,10.0,29.98,SSW,209,0.0,0.0,26,0.00,,CLR,0.00,0.00,VWS V14.01,2013-03-18 10:51:00,
2013-03-18 04:56:00,41.9,9.5,29.98,SSW,209,0.0,0.0,26,0.00,,CLR,0.00,0.00,VWS V14.01,2013-03-18 10:56:00,
2013-03-18 05:01:00,41.5,9.2,29.98,SSW,209,0.0,1.0,26,0.00,,CLR,0.00,0.00,VWS V14.01,2013-03-18 11:01:00,
2013-03-18 05:06:00,41.3,9.0,29.98,SSW,209,0.0,0.0,26,0.00,,CLR,0.00,0.00,VWS V14.01,2013-03-18 11:06:00,
2013-03-18 05:11:00,41.1,8.8,29.98,SSW,209,1.0,4.0,26,0.00,,CLR,0.00,0.00,VWS V14.01,2013-03-18 11:11:00,
2013-03-18 05:16:00,40.7,9.3,29.98,SSW,209,0.0,2.0,27,0.00,,CLR,0.00,0.00,VWS V14.01,2013-03-18 11:16:00,
2013-03-18 05:22:00,40.4,9.1,29.98,SSW,209,1.0,2.0,27,0.00,,CLR,0.00,0.00,VWS V14.01,2013-03-18 11:22:00,
2013-03-18 05:27:00,40.2,8.9,29.98,SSW,209,0.0,0.0,27,0.00,,CLR,0.00,0.00,VWS V14.01,2013-03-18 11:27:00,
2013-03-18 05:32:00,40.0,8.7,29.98,SSW,209,0.0,1.0,27,0.00,,CLR,0.00,0.00,VWS V14.01,2013-03-18 11:32:00,
2013-03-18 05:37:00,39.9,8.6,29.98,SSW,209,0.0,0.0,27,0.00,,CLR,0.00,0.00,VWS V14.01,2013-03-18 11:37:00,
2013-03-18 05:42:00,39.8,9.4,29.98,SSW,209,0.0,0.0,28,0.00,,CLR,0.00,0.00,VWS V14.01,2013-03-18 11:42:00,
2013-03-18 05:47:00,39.6,9.2,29.98,SSW,209,0.0,0.0,28,0.00,,CLR,0.00,0.00,VWS V14.01,2013-03-18 11:47:00,
2013-03-18 05:52:00,39.3,8.9,29.98,SSW,209,0.0,2.0,28,0.00,,CLR,0.00,0.00,VWS V14.01,2013-03-18 11:52:00,
2013-03-18 05:57:00,39.1,9.5,29.98,SSW,209,0.0,0.0,29,0.00,,CLR,0.00,0.00,VWS V14.01,2013-03-18 11:57:00,
2013-03-18 06:02:00,39.0,9.4,29.98,SSW,209,0.0,0.0,29,0.00,,CLR,0.00,0.00,VWS V14.01,2013-03-18 12:02:00,
2013-03-18 06:07:00,38.8,9.3,29.98,SSW,209,0.0,0.0,29,0.00,,CLR,0.00,0.00,VWS V14.01,2013-03-18 12:07:00,
2013-03-18 06:13:00,38.7,9.2,29.98,SSW,209,0.0,0.0,29,0.00,,CLR,0.00,0.00,VWS V14.01,2013-03-18 12:13:00,
2013-03-18 06:18:00,38.4,9.7,29.98,SSW,209,0.0,2.0,30,0.00,,CLR,0.00,0.00,VWS V14.01,2013-03-18 12:18:00,
2013-03-18 06:23:00,38.2,9.5,29.99,SSW,209,0.0,0.0,30,0.00,,CLR,0.00,0.00,VWS V14.01,2013-03-18 12:23:00,
2013-03-18 06:28:00,37.9,9.2,29.99,SSW,209,0.0,1.0,30,0.00,,CLR,0.00,0.00,VWS V14.01,2013-03-18 12:28:00,
2013-03-18 06:33:00,37.7,9.8,30.00,SSW,209,0.0,0.0,31,0.00,,CLR,0.00,0.00,VWS V14.01,2013-03-18 12:33:00,
2013-03-18 06:38:00,37.4,10.2,30.00,SSW,209,0.0,0.0,32,0.00,,CLR,0.00,0.00,VWS V14.01,2013-03-18 12:38:00,
2013-03-18 06:43:00,37.3,9.4,30.00,SSW,209,0.0,0.0,31,0.00,,CLR,0.00,0.00,VWS V14.01,2013-03-18 12:43:00,
2013-03-18 06:48:00,37.1,9.3,30.00,SSW,209,0.0,0.0,31,0.00,,CLR,0.00,0.00,VWS V14.01,2013-03-18 12:48:00,
2013-03-18 06:53:00,36.9,9.1,30.00,SSW,209,0.0,0.0,31,0.00,,CLR,0.00,0.00,VWS V14.01,2013-03-18 12:53:00,
2013-03-18 06:58:00,36.8,9.0,30.00,SSW,209,0.0,0.0,31,0.00,,CLR,0.00,0.00,VWS V14.01,2013-03-18 12:58:00,
2013-03-18 07:03:00,36.5,9.5,30.01,SSW,209,1.0,1.0,32,0.00,,CLR,0.00,0.00,VWS V14.01,2013-03-18 13:03:00,
2013-03-18 07:08:00,36.2,9.2,30.01,SSW,209,0.0,2.0,32,0.00,,CLR,0.00,5.00,VWS V14.01,2013-03-18 13:08:00,
2013-03-18 07:13:00,36.0,8.3,30.01,SSW,209,0.0,2.0,31,0.00,,CLR,0.00,5.00,VWS V14.01,2013-03-18 13:13:00,
2013-03-18 07:18:00,35.8,8.8,30.01,SSW,209,0.0,0.0,32,0.00,,CLR,0.00,7.00,VWS V14.01,2013-03-18 13:18:00,
2013-03-18 07:23:00,35.6,8.0,30.01,SSW,209,0.0,0.0,31,0.00,,CLR,0.00,14.00,VWS V14.01,2013-03-18 13:23:00,
2013-03-18 07:28:00,35.5,7.9,30.01,SSW,209,0.0,2.0,31,0.00,,CLR,0.00,21.00,VWS V14.01,2013-03-18 13:28:00,
2013-03-18 07:33:00,35.3,7.7,30.02,SSW,209,0.0,0.0,31,0.00,,CLR,0.00,26.00,VWS V14.01,2013-03-18 13:33:00,
2013-03-18 07:38:00,35.3,7.7,30.02,SSW,209,0.0,2.0,31,0.00,,CLR,0.00,33.00,VWS V14.01,2013-03-18 13:38:00,
2013-03-18 07:43:00,35.3,7.7,30.03,SSW,209,0.0,3.0,31,0.00,,CLR,0.00,30.00,VWS V14.01,2013-03-18 13:43:00,
2013-03-18 07:48:00,35.4,7.8,30.02,SSW,209,0.0,0.0,31,0.00,,CLR,0.00,44.00,VWS V14.01,2013-03-18 13:48:00,
2013-03-18 07:53:00,35.5,7.9,30.02,SSW,209,0.0,0.0,31,0.00,,CLR,0.00,74.00,VWS V14.01,2013-03-18 13:53:00,
2013-03-18 07:58:00,35.6,8.0,30.03,SSW,209,0.0,0.0,31,0.00,,CLR,0.00,67.00,VWS V14.01,2013-03-18 13:58:00,
2013-03-18 08:03:00,35.7,8.1,30.03,SSW,209,0.0,0.0,31,0.00,,FEW250,0.00,42.00,VWS V14.01,2013-03-18 14:03:00,
2013-03-18 08:08:00,36.0,8.3,30.03,SSW,209,0.0,1.0,31,0.00,,FEW250,0.00,60.00,VWS V14.01,2013-03-18 14:08:00,
2013-03-18 08:13:00,36.3,8.6,30.03,SSW,209,0.0,0.0,31,0.00,,FEW250,0.00,62.00,VWS V14.01,2013-03-18 14:13:00,
2013-03-18 08:18:00,36.5,8.0,30.03,SSW,209,0.0,0.0,30,0.00,,FEW250,0.00,42.00,VWS V14.01,2013-03-18 14:18:00,
2013-03-18 08:23:00,36.8,7.5,30.03,SSW,209,0.0,0.0,29,0.00,,FEW250,0.00,46.00,VWS V14.01,2013-03-18 14:23:00,
2013-03-18 08:29:00,37.0,6.9,30.04,SSW,209,0.0,0.0,28,0.00,,FEW250,0.00,42.00,VWS V14.01,2013-03-18 14:29:00,
2013-03-18 08:34:00,37.4,7.3,30.04,SSW,209,0.0,1.0,28,0.00,,FEW250,0.00,65.00,VWS V14.01,2013-03-18 14:34:00,
2013-03-18 08:39:00,37.9,7.7,30.04,SSW,207,0.0,2.0,28,0.00,,FEW250,0.00,132.00,VWS V14.01,2013-03-18 14:39:00,
2013-03-18 08:44:00,38.8,7.7,30.04,SSW,207,0.0,1.0,27,0.00,,FEW250,0.00,315.00,VWS V14.01,2013-03-18 14:44:00,
2013-03-18 08:49:00,40.3,6.4,30.05,SSW,207,0.0,1.0,24,0.00,,FEW250,0.00,330.00,VWS V14.01,2013-03-18 14:49:00,
2013-03-18 08:54:00,43.1,5.8,30.05,SSW,207,0.0,0.0,21,0.00,,FEW250,0.00,350.00,VWS V14.01,2013-03-18 14:54:00,
2013-03-18 08:59:00,44.1,6.7,30.05,SSW,207,0.0,0.0,21,0.00,,FEW250,0.00,369.00,VWS V14.01,2013-03-18 14:59:00,
2013-03-18 09:04:00,45.1,7.5,30.05,SSW,207,0.0,0.0,21,0.00,,FEW250,0.00,390.00,VWS V14.01,2013-03-18 15:04:00,
2013-03-18 09:09:00,46.3,6.3,30.05,SSW,207,0.0,0.0,19,0.00,,FEW250,0.00,408.00,VWS V14.01,2013-03-18 15:09:00,
2013-03-18 09:14:00,46.7,7.8,30.05,SSW,207,0.0,1.0,20,0.00,,FEW250,0.00,425.00,VWS V14.01,2013-03-18 15:14:00,
2013-03-18 09:19:00,47.1,8.1,30.05,SSW,207,0.0,0.0,20,0.00,,FEW250,0.00,443.00,VWS V14.01,2013-03-18 15:19:00,
2013-03-18 09:24:00,48.0,8.9,30.05,SSW,203,0.0,0.0,20,0.00,,FEW250,0.00,461.00,VWS V14.01,2013-03-18 15:24:00,
2013-03-18 09:29:00,48.5,9.3,30.05,SSW,203,0.0,2.0,20,0.00,,FEW250,0.00,478.00,VWS V14.01,2013-03-18 15:29:00,
2013-03-18 09:34:00,49.5,10.1,30.05,SSW,203,1.0,2.0,20,0.00,,FEW250,0.00,497.00,VWS V14.01,2013-03-18 15:34:00,
2013-03-18 09:39:00,50.1,9.5,30.05,SSW,203,0.0,0.0,19,0.00,,FEW250,0.00,517.00,VWS V14.01,2013-03-18 15:39:00,
2013-03-18 09:44:00,51.1,9.1,30.05,SSW,203,0.0,1.0,18,0.00,,FEW250,0.00,533.00,VWS V14.01,2013-03-18 15:44:00,
2013-03-18 09:49:00,51.6,9.5,30.04,SE,141,2.0,2.0,18,0.00,,FEW250,0.00,547.00,VWS V14.01,2013-03-18 15:49:00,
2013-03-18 09:55:00,52.0,9.8,30.05,SSE,151,3.0,3.0,18,0.00,,FEW250,0.00,564.00,VWS V14.01,2013-03-18 15:55:00,
2013-03-18 10:00:00,52.5,10.2,30.04,SSE,162,3.0,4.0,18,0.00,,FEW250,0.00,577.00,VWS V14.01,2013-03-18 16:00:00,
2013-03-18 10:05:00,52.7,7.8,30.05,SSE,162,0.0,0.0,16,0.00,,FEW250,0.00,592.00,VWS V14.01,2013-03-18 16:05:00,
2013-03-18 10:10:00,53.4,8.4,30.04,SSE,163,2.0,4.0,16,0.00,,FEW250,0.00,610.00,VWS V14.01,2013-03-18 16:10:00,
2013-03-18 10:15:00,53.7,8.6,30.04,SSE,162,0.0,0.0,16,0.00,,FEW250,0.00,626.00,VWS V14.01,2013-03-18 16:15:00,
2013-03-18 10:20:00,54.0,8.8,30.04,SSE,163,0.0,2.0,16,0.00,,FEW250,0.00,636.00,VWS V14.01,2013-03-18 16:20:00,
2013-03-18 10:25:00,54.4,7.7,30.04,SSE,163,0.0,2.0,15,0.00,,FEW250,0.00,650.00,VWS V14.01,2013-03-18 16:25:00,
2013-03-18 10:30:00,54.7,8.0,30.04,SSE,163,0.0,0.0,15,0.00,,FEW250,0.00,663.00,VWS V14.01,2013-03-18 16:30:00,
2013-03-18 10:35:00,55.0,8.2,30.04,SSE,163,0.0,3.0,15,0.00,,FEW250,0.00,677.00,VWS V14.01,2013-03-18 16:35:00,
2013-03-18 10:40:00,54.9,8.1,30.05,SSE,163,3.0,4.0,15,0.00,,FEW250,0.00,691.00,VWS V14.01,2013-03-18 16:40:00,
2013-03-18 10:45:00,55.2,8.4,30.04,SSE,163,0.0,1.0,15,0.00,,FEW250,0.00,701.00,VWS V14.01,2013-03-18 16:45:00,
2013-03-18 10:50:00,56.1,9.1,30.04,SSE,163,0.0,1.0,15,0.00,,FEW250,0.00,703.00,VWS V14.01,2013-03-18 16:50:00,
2013-03-18 10:55:00,57.2,8.4,30.04,SSE,163,0.0,3.0,14,0.00,,FEW250,0.00,726.00,VWS V14.01,2013-03-18 16:55:00,
2013-03-18 11:00:00,57.3,10.1,30.04,SSE,163,1.0,1.0,15,0.00,,FEW250,0.00,742.00,VWS V14.01,2013-03-18 17:00:00,
2013-03-18 11:05:00,58.2,9.2,30.04,SSE,163,2.0,3.0,14,0.00,,FEW250,0.00,752.00,VWS V14.01,2013-03-18 17:05:00,
2013-03-18 11:10:00,57.8,8.9,30.05,SSE,165,0.0,4.0,14,0.00,,FEW250,0.00,747.00,VWS V14.01,2013-03-18 17:10:00,
2013-03-18 11:15:00,58.1,9.2,30.04,SSE,165,2.0,3.0,14,0.00,,FEW250,0.00,779.00,VWS V14.01,2013-03-18 17:15:00,
2013-03-18 11:20:00,58.6,9.6,30.04,SSE,165,0.0,4.0,14,0.00,,FEW250,0.00,782.00,VWS V14.01,2013-03-18 17:20:00,
2013-03-18 11:25:00,58.9,9.8,30.04,SSE,165,0.0,4.0,14,0.00,,FEW250,0.00,796.00,VWS V14.01,2013-03-18 17:25:00,
2013-03-18 11:30:00,58.0,9.1,30.04,SSE,165,3.0,5.0,14,0.00,,FEW250,0.00,805.00,VWS V14.01,2013-03-18 17:30:00,
2013-03-18 11:35:00,59.3,10.1,30.04,SSE,165,0.0,2.0,14,0.00,,FEW250,0.00,823.00,VWS V14.01,2013-03-18 17:35:00,
2013-03-18 11:40:00,60.3,9.3,30.04,SSE,165,0.0,0.0,13,0.00,,FEW250,0.00,807.00,VWS V14.01,2013-03-18 17:40:00,
2013-03-18 11:46:00,61.2,10.0,30.04,SSE,165,0.0,3.0,13,0.00,,FEW250,0.00,817.00,VWS V14.01,2013-03-18 17:46:00,
2013-03-18 11:51:00,61.8,10.5,30.04,SSE,165,0.0,1.0,13,0.00,,FEW250,0.00,831.00,VWS V14.01,2013-03-18 17:51:00,
2013-03-18 11:56:00,62.2,9.0,30.04,SSE,165,0.0,1.0,12,0.00,,FEW250,0.00,840.00,VWS V14.01,2013-03-18 17:56:00,
2013-03-18 12:01:00,62.8,9.5,30.04,SE,128,0.0,3.0,12,0.00,,FEW250,0.00,835.00,VWS V14.01,2013-03-18 18:01:00,
2013-03-18 12:06:00,63.3,9.9,30.04,SE,128,3.0,3.0,12,0.00,,FEW250,0.00,824.00,VWS V14.01,2013-03-18 18:06:00,
2013-03-18 12:11:00,63.5,8.1,30.03,NNE,32,0.0,8.0,11,0.00,,FEW250,0.00,847.00,VWS V14.01,2013-03-18 18:11:00,
2013-03-18 12:16:00,64.9,9.2,30.03,North,350,0.0,4.0,11,0.00,,FEW250,0.00,833.00,VWS V14.01,2013-03-18 18:16:00,
2013-03-18 12:21:00,65.5,9.6,30.03,ESE,113,0.0,3.0,11,0.00,,FEW250,0.00,803.00,VWS V14.01,2013-03-18 18:21:00,
2013-03-18 12:26:00,65.8,7.7,30.03,NNE,12,1.0,5.0,10,0.00,,FEW250,0.00,791.00,VWS V14.01,2013-03-18 18:26:00,
2013-03-18 12:31:00,66.2,8.1,30.02,NNW,330,0.0,7.0,10,0.00,,FEW250,0.00,874.00,VWS V14.01,2013-03-18 18:31:00,
2013-03-18 12:37:00,67.0,6.3,30.02,North,355,0.0,3.0,9,0.00,,FEW250,0.00,875.00,VWS V14.01,2013-03-18 18:37:00,
2013-03-18 12:42:00,65.7,7.7,30.02,North,351,2.0,6.0,10,0.00,,FEW250,0.00,872.00,VWS V14.01,2013-03-18 18:42:00,
2013-03-18 12:47:00,67.4,9.0,30.02,NNE,20,1.0,4.0,10,0.00,,FEW250,0.00,868.00,VWS V14.01,2013-03-18 18:47:00,
2013-03-18 12:52:00,68.3,7.3,30.02,WNW,287,7.0,9.0,9,0.00,,FEW250,0.00,875.00,VWS V14.01,2013-03-18 18:52:00,
2013-03-18 12:57:00,68.5,4.9,30.01,WNW,297,0.0,4.0,8,0.00,,FEW250,0.00,879.00,VWS V14.01,2013-03-18 18:57:00,
2013-03-18 13:02:00,68.2,7.2,30.01,NW,322,4.0,9.0,9,0.00,,SCT250,0.00,875.00,VWS V14.01,2013-03-18 19:02:00,
2013-03-18 13:07:00,68.8,7.7,30.01,North,355,0.0,7.0,9,0.00,,SCT250,0.00,874.00,VWS V14.01,2013-03-18 19:07:00,
2013-03-18 13:12:00,70.5,6.4,30.01,NW,317,6.0,8.0,8,0.00,,SCT250,0.00,874.00,VWS V14.01,2013-03-18 19:12:00,
2013-03-18 13:17:00,70.2,6.2,30.00,NNW,331,7.0,9.0,8,0.00,,SCT250,0.00,872.00,VWS V14.01,2013-03-18 19:17:00,
2013-03-18 13:22:00,70.8,3.7,30.00,NW,317,7.0,15.0,7,0.00,,SCT250,0.00,872.00,VWS V14.01,2013-03-18 19:22:00,
2013-03-18 13:27:00,71.0,3.8,30.00,WNW,287,10.0,13.0,7,0.00,,SCT250,0.00,870.00,VWS V14.01,2013-03-18 19:27:00,
2013-03-18 13:32:00,71.4,4.1,30.00,WNW,286,13.0,15.0,7,0.00,,SCT250,0.00,865.00,VWS V14.01,2013-03-18 19:32:00,
2013-03-18 13:37:00,71.3,4.1,29.99,West,275,7.0,12.0,7,0.00,,SCT250,0.00,863.00,VWS V14.01,2013-03-18 19:37:00,
2013-03-18 13:42:00,70.9,3.8,29.99,NW,323,0.0,17.0,7,0.00,,SCT250,0.00,860.00,VWS V14.01,2013-03-18 19:42:00,
2013-03-18 13:48:00,71.0,3.8,29.99,North,360,6.0,6.0,7,0.00,,SCT250,0.00,856.00,VWS V14.01,2013-03-18 19:48:00,
2013-03-18 13:53:00,71.3,4.1,29.99,WNW,303,3.0,13.0,7,0.00,,SCT250,0.00,853.00,VWS V14.01,2013-03-18 19:53:00,
2013-03-18 13:58:00,71.0,6.8,29.98,West,261,3.0,15.0,8,0.00,,SCT250,0.00,844.00,VWS V14.01,2013-03-18 19:58:00,
2013-03-18 14:03:00,72.2,4.7,29.98,NW,313,10.0,20.0,7,0.00,,SCT240,0.00,840.00,VWS V14.01,2013-03-18 20:03:00,
2013-03-18 14:08:00,72.7,1.8,29.98,NW,317,1.0,15.0,6,0.00,,SCT240,0.00,831.00,VWS V14.01,2013-03-18 20:08:00,
2013-03-18 14:13:00,71.7,1.0,29.98,WNW,300,5.0,17.0,6,0.00,,SCT240,0.00,826.00,VWS V14.01,2013-03-18 20:13:00,
2013-03-18 14:18:00,71.5,4.2,29.97,NW,306,6.0,14.0,7,0.00,,SCT240,0.00,819.00,VWS V14.01,2013-03-18 20:18:00,
2013-03-18 14:23:00,71.9,1.2,29.97,NNW,342,5.0,17.0,6,0.00,,SCT240,0.00,814.00,VWS V14.01,2013-03-18 20:23:00,
2013-03-18 14:28:00,72.2,4.7,29.97,WNW,292,11.0,20.0,7,0.00,,SCT240,0.00,807.00,VWS V14.01,2013-03-18 20:28:00,
2013-03-18 14:33:00,72.3,1.5,29.97,NW,311,4.0,15.0,6,0.00,,SCT240,0.00,798.00,VWS V14.01,2013-03-18 20:33:00,
2013-03-18 14:38:00,72.8,5.2,29.97,NW,306,6.0,14.0,7,0.00,,SCT240,0.00,788.00,VWS V14.01,2013-03-18 20:38:00,
2013-03-18 14:43:00,73.0,2.0,29.97,WNW,282,11.0,15.0,6,0.00,,SCT240,0.00,780.00,VWS V14.01,2013-03-18 20:43:00,
2013-03-18 14:48:00,72.5,1.6,29.97,WNW,298,10.0,25.0,6,0.00,,SCT240,0.00,770.00,VWS V14.01,2013-03-18 20:48:00,
2013-03-18 14:53:00,72.4,4.9,29.97,WSW,257,8.0,18.0,7,0.00,,SCT240,0.00,758.00,VWS V14.01,2013-03-18 20:53:00,
2013-03-18 14:58:00,72.2,4.7,29.97,NW,315,9.0,22.0,7,0.00,,SCT240,0.00,751.00,VWS V14.01,2013-03-18 20:58:00,
2013-03-18 15:03:00,72.6,5.0,29.97,NW,309,7.0,14.0,7,0.00,,FEW170,0.00,738.00,VWS V14.01,2013-03-18 21:03:00,
2013-03-18 15:08:00,72.9,1.9,29.96,West,271,14.0,26.0,6,0.00,,FEW170,0.00,728.00,VWS V14.01,2013-03-18 21:08:00,
2013-03-18 15:14:00,72.1,4.7,29.97,WSW,251,11.0,26.0,7,0.00,,FEW170,0.00,717.00,VWS V14.01,2013-03-18 21:14:00,
2013-03-18 15:19:00,72.1,4.7,29.97,WNW,290,8.0,17.0,7,0.00,,FEW170,0.00,705.00,VWS V14.01,2013-03-18 21:19:00,
2013-03-18 15:24:00,72.7,1.8,29.96,NW,320,6.0,16.0,6,0.00,,FEW170,0.00,691.00,VWS V14.01,2013-03-18 21:24:00,
2013-03-18 15:29:00,72.9,1.9,29.96,NNW,346,9.0,18.0,6,0.00,,FEW170,0.00,679.00,VWS V14.01,2013-03-18 21:29:00,
2013-03-18 15:34:00,73.2,2.1,29.96,WNW,288,7.0,7.0,6,0.00,,FEW170,0.00,668.00,VWS V14.01,2013-03-18 21:34:00,
2013-03-18 15:39:00,73.3,2.2,29.96,WNW,300,14.0,14.0,6,0.00,,FEW170,0.00,656.00,VWS V14.01,2013-03-18 21:39:00,
2013-03-18 15:44:00,73.2,2.1,29.96,NW,304,12.0,17.0,6,0.00,,FEW170,0.00,640.00,VWS V14.01,2013-03-18 21:44:00,
2013-03-18 15:49:00,73.2,2.1,29.96,NNW,336,6.0,6.0,6,0.00,,FEW170,0.00,626.00,VWS V14.01,2013-03-18 21:49:00,
2013-03-18 15:54:00,73.3,2.2,29.95,NW,308,4.0,17.0,6,0.00,,FEW170,0.00,613.00,VWS V14.01,2013-03-18 21:54:00,
2013-03-18 15:59:00,73.0,2.0,29.96,NW,315,3.0,8.0,6,0.00,,FEW170,0.00,598.00,VWS V14.01,2013-03-18 21:59:00,
2013-03-18 16:04:00,73.0,2.0,29.96,NW,313,6.0,13.0,6,0.00,,FEW200,0.00,582.00,VWS V14.01,2013-03-18 22:04:00,
2013-03-18 16:09:00,72.8,1.8,29.95,NW,306,9.0,16.0,6,0.00,,FEW200,0.00,566.00,VWS V14.01,2013-03-18 22:09:00,
2013-03-18 16:14:00,72.4,4.9,29.95,NW,305,3.0,12.0,7,0.00,,FEW200,0.00,554.00,VWS V14.01,2013-03-18 22:14:00,
2013-03-18 16:19:00,72.5,1.6,29.95,WNW,289,13.0,20.0,6,0.00,,FEW200,0.00,536.00,VWS V14.01,2013-03-18 22:19:00,
2013-03-18 16:24:00,72.1,1.3,29.95,NNW,330,9.0,15.0,6,0.00,,FEW200,0.00,520.00,VWS V14.01,2013-03-18 22:24:00,
2013-03-18 16:29:00,71.9,4.5,29.96,NW,316,10.0,13.0,7,0.00,,FEW200,0.00,503.00,VWS V14.01,2013-03-18 22:29:00,
2013-03-18 16:34:00,71.8,4.4,29.95,NW,309,11.0,19.0,7,0.00,,FEW200,0.00,410.00,VWS V14.01,2013-03-18 22:34:00,
2013-03-18 16:40:00,71.4,4.1,29.95,NW,313,15.0,15.0,7,0.00,,FEW200,0.00,346.00,VWS V14.01,2013-03-18 22:40:00,
2013-03-18 16:45:00,71.1,3.9,29.96,West,269,5.0,14.0,7,0.00,,FEW200,0.00,429.00,VWS V14.01,2013-03-18 22:45:00,
2013-03-18 16:50:00,71.0,3.8,29.96,WNW,294,12.0,12.0,7,0.00,,FEW200,0.00,434.00,VWS V14.01,2013-03-18 22:50:00,
2013-03-18 16:55:00,70.9,3.8,29.96,WNW,300,11.0,13.0,7,0.00,,FEW200,0.00,255.00,VWS V14.01,2013-03-18 22:55:00,
2013-03-18 17:00:00,70.7,3.6,29.96,NW,304,11.0,16.0,7,0.00,,FEW200,0.00,185.00,VWS V14.01,2013-03-18 23:00:00,
2013-03-18 17:05:00,70.3,3.3,29.96,NNW,334,7.0,14.0,7,0.00,,CLR,0.00,290.00,VWS V14.01,2013-03-18 23:05:00,
2013-03-18 17:10:00,70.3,3.3,29.96,NW,310,4.0,10.0,7,0.00,,CLR,0.00,207.00,VWS V14.01,2013-03-18 23:10:00,
2013-03-18 17:15:00,69.9,3.0,29.97,NW,315,5.0,16.0,7,0.00,,CLR,0.00,232.00,VWS V14.01,2013-03-18 23:15:00,
2013-03-18 17:20:00,69.4,2.7,29.97,NW,321,10.0,19.0,7,0.00,,CLR,0.00,151.00,VWS V14.01,2013-03-18 23:20:00,
2013-03-18 17:25:00,68.9,5.2,29.97,NW,312,12.0,17.0,8,0.00,,CLR,0.00,149.00,VWS V14.01,2013-03-18 23:25:00,
2013-03-18 17:30:00,68.7,5.0,29.97,NW,321,10.0,17.0,8,0.00,,CLR,0.00,84.00,VWS V14.01,2013-03-18 23:30:00,
2013-03-18 17:35:00,68.6,5.0,29.97,North,360,9.0,16.0,8,0.00,,CLR,0.00,211.00,VWS V14.01,2013-03-18 23:35:00,
2013-03-18 17:40:00,68.5,4.9,29.97,NNW,329,13.0,16.0,8,0.00,,CLR,0.00,209.00,VWS V14.01,2013-03-18 23:40:00,
2013-03-18 17:45:00,68.3,4.7,29.97,NW,316,8.0,16.0,8,0.00,,CLR,0.00,193.00,VWS V14.01,2013-03-18 23:45:00,
2013-03-18 17:50:00,68.0,4.5,29.97,NNW,332,9.0,19.0,8,0.00,,CLR,0.00,130.00,VWS V14.01,2013-03-18 23:50:00,
2013-03-18 17:55:00,67.6,4.2,29.97,NW,309,5.0,22.0,8,0.00,,CLR,0.00,128.00,VWS V14.01,2013-03-18 23:55:00,
2013-03-18 18:00:00,67.2,3.9,29.97,NNW,327,12.0,20.0,8,0.00,,CLR,0.00,95.00,VWS V14.01,2013-03-19 00:00:00,
2013-03-18 18:06:00,66.9,6.3,29.97,NNW,339,10.0,14.0,9,0.00,,CLR,0.00,111.00,VWS V14.01,2013-03-19 00:06:00,
2013-03-18 18:11:00,66.7,3.5,29.97,NNW,340,6.0,16.0,8,0.00,,CLR,0.00,60.00,VWS V14.01,2013-03-19 00:11:00,
2013-03-18 18:16:00,66.4,3.3,29.97,WNW,297,7.0,19.0,8,0.00,,CLR,0.00,70.00,VWS V14.01,2013-03-19 00:16:00,
2013-03-18 18:21:00,66.1,5.7,29.97,North,360,15.0,20.0,9,0.00,,CLR,0.00,51.00,VWS V14.01,2013-03-19 00:21:00,
2013-03-18 18:26:00,65.8,5.4,29.98,NNW,327,9.0,10.0,9,0.00,,CLR,0.00,51.00,VWS V14.01,2013-03-19 00:26:00,
2013-03-18 18:31:00,65.6,5.3,29.98,WNW,286,16.0,16.0,9,0.00,,CLR,0.00,33.00,VWS V14.01,2013-03-19 00:31:00,
2013-03-18 18:36:00,65.2,5.0,29.98,NW,311,16.0,16.0,9,0.00,,CLR,0.00,25.00,VWS V14.01,2013-03-19 00:36:00,
2013-03-18 18:41:00,64.9,4.8,29.98,NW,306,11.0,15.0,9,0.00,,CLR,0.00,26.00,VWS V14.01,2013-03-19 00:41:00,
2013-03-18 18:47:00,64.6,4.5,29.98,West,279,5.0,13.0,9,0.00,,CLR,0.00,19.00,VWS V14.01,2013-03-19 00:47:00,
2013-03-18 18:52:00,64.2,4.2,29.98,WNW,294,7.0,11.0,9,0.00,,CLR,0.00,19.00,VWS V14.01,2013-03-19 00:52:00,
2013-03-18 18:57:00,63.9,4.0,29.98,NNW,336,4.0,12.0,9,0.00,,CLR,0.00,18.00,VWS V14.01,2013-03-19 00:57:00,
2013-03-18 19:02:00,63.5,6.0,29.98,NW,315,4.0,10.0,10,0.00,,FEW130,0.00,14.00,VWS V14.01,2013-03-19 01:02:00,
2013-03-18 19:07:00,63.1,5.7,29.98,NW,309,8.0,15.0,10,0.00,,FEW130,0.00,9.00,VWS V14.01,2013-03-19 01:07:00,
2013-03-18 19:12:00,62.7,5.4,29.98,NW,320,5.0,10.0,10,0.00,,FEW130,0.00,5.00,VWS V14.01,2013-03-19 01:12:00,
2013-03-18 19:17:00,62.3,5.1,29.98,NW,307,5.0,9.0,10,0.00,,FEW130,0.00,0.00,VWS V14.01,2013-03-19 01:17:00,
2013-03-18 19:22:00,62.0,4.8,29.99,NNW,339,8.0,8.0,10,0.00,,FEW130,0.00,0.00,VWS V14.01,2013-03-19 01:22:00,
2013-03-18 19:27:00,61.6,4.5,29.99,NW,325,1.0,5.0,10,0.00,,FEW130,0.00,0.00,VWS V14.01,2013-03-19 01:27:00,
2013-03-18 19:32:00,61.3,4.3,29.99,NW,322,3.0,8.0,10,0.00,,FEW130,0.00,0.00,VWS V14.01,2013-03-19 01:32:00,
2013-03-18 19:38:00,61.0,6.1,29.99,NNW,333,1.0,6.0,11,0.00,,FEW130,0.00,0.00,VWS V14.01,2013-03-19 01:38:00,
2013-03-18 19:43:00,60.7,5.9,29.99,NNW,336,2.0,8.0,11,0.00,,FEW130,0.00,0.00,VWS V14.01,2013-03-19 01:43:00,
2013-03-18 19:48:00,60.4,5.7,29.99,NNW,341,3.0,5.0,11,0.00,,FEW130,0.00,0.00,VWS V14.01,2013-03-19 01:48:00,
2013-03-18 19:53:00,60.1,5.4,30.00,North,355,0.0,5.0,11,0.00,,FEW130,0.00,0.00,VWS V14.01,2013-03-19 01:53:00,
2013-03-18 19:58:00,59.8,5.2,30.00,NNW,346,0.0,5.0,11,0.00,,FEW130,0.00,0.00,VWS V14.01,2013-03-19 01:58:00,
2013-03-18 20:03:00,59.5,5.0,30.00,NNW,347,0.0,4.0,11,0.00,,SCT250,0.00,0.00,VWS V14.01,2013-03-19 02:03:00,
2013-03-18 20:08:00,59.1,4.7,30.00,North,5,2.0,6.0,11,0.00,,SCT250,0.00,0.00,VWS V14.01,2013-03-19 02:08:00,
2013-03-18 20:13:00,58.9,4.5,30.01,North,5,3.0,4.0,11,0.00,,SCT250,0.00,0.00,VWS V14.01,2013-03-19 02:13:00,
2013-03-18 20:18:00,58.6,4.3,30.01,North,5,2.0,4.0,11,0.00,,SCT250,0.00,0.00,VWS V14.01,2013-03-19 02:18:00,
2013-03-18 20:23:00,58.3,5.9,30.01,North,355,1.0,6.0,12,0.00,,SCT250,0.00,0.00,VWS V14.01,2013-03-19 02:23:00,
2013-03-18 20:28:00,58.0,5.7,30.01,North,355,0.0,4.0,12,0.00,,SCT250,0.00,0.00,VWS V14.01,2013-03-19 02:28:00,
2013-03-18 20:33:00,57.7,5.5,30.01,North,355,2.0,5.0,12,0.00,,SCT250,0.00,0.00,VWS V14.01,2013-03-19 02:33:00,
2013-03-18 20:39:00,57.3,5.1,30.02,North,355,7.0,7.0,12,0.00,,SCT250,0.00,0.00,VWS V14.01,2013-03-19 02:39:00,
2013-03-18 20:44:00,57.0,4.9,30.02,North,351,0.0,6.0,12,0.00,,SCT250,0.00,0.00,VWS V14.01,2013-03-19 02:44:00,
2013-03-18 20:49:00,56.8,4.8,30.02,North,351,0.0,2.0,12,0.00,,SCT250,0.00,0.00,VWS V14.01,2013-03-19 02:49:00,
2013-03-18 20:54:00,56.5,4.5,30.02,North,351,0.0,3.0,12,0.00,,SCT250,0.00,0.00,VWS V14.01,2013-03-19 02:54:00,
2013-03-18 20:59:00,56.2,6.0,30.02,North,351,0.0,0.0,13,0.00,,SCT250,0.00,0.00,VWS V14.01,2013-03-19 02:59:00,
2013-03-18 21:04:00,56.0,5.9,30.02,North,351,0.0,0.0,13,0.00,,SCT250,0.00,0.00,VWS V14.01,2013-03-19 03:04:00,
2013-03-18 21:09:00,55.7,5.6,30.02,North,351,0.0,0.0,13,0.00,,SCT250,0.00,0.00,VWS V14.01,2013-03-19 03:09:00,
2013-03-18 21:14:00,55.3,5.3,30.03,North,351,0.0,0.0,13,0.00,,SCT250,0.00,0.00,VWS V14.01,2013-03-19 03:14:00,
2013-03-18 21:20:00,54.8,4.9,30.03,North,351,0.0,0.0,13,0.00,,SCT250,0.00,0.00,VWS V14.01,2013-03-19 03:20:00,
2013-03-18 21:25:00,54.3,6.1,30.03,North,351,0.0,2.0,14,0.00,,SCT250,0.00,0.00,VWS V14.01,2013-03-19 03:25:00,
2013-03-18 21:30:00,53.9,5.8,30.03,North,351,0.0,0.0,14,0.00,,SCT250,0.00,0.00,VWS V14.01,2013-03-19 03:30:00,
2013-03-18 21:35:00,53.5,5.5,30.03,North,351,0.0,0.0,14,0.00,,SCT250,0.00,0.00,VWS V14.01,2013-03-19 03:35:00,
2013-03-18 21:40:00,53.2,5.3,30.03,North,351,0.0,0.0,14,0.00,,SCT250,0.00,0.00,VWS V14.01,2013-03-19 03:40:00,
2013-03-18 21:45:00,52.8,6.4,30.03,North,351,0.0,1.0,15,0.00,,SCT250,0.00,0.00,VWS V14.01,2013-03-19 03:45:00,
2013-03-18 21:50:00,52.4,6.1,30.03,North,351,0.0,0.0,15,0.00,,SCT250,0.00,0.00,VWS V14.01,2013-03-19 03:50:00,
2013-03-18 21:55:00,52.1,5.9,30.03,North,351,1.0,2.0,15,0.00,,SCT250,0.00,0.00,VWS V14.01,2013-03-19 03:55:00,
2013-03-18 22:00:00,51.6,5.5,30.03,North,351,0.0,0.0,15,0.00,,SCT250,0.00,0.00,VWS V14.01,2013-03-19 04:00:00,
2013-03-18 22:01:00,51.6,5.5,30.03,North,351,0.0,0.0,15,0.00,,FEW250,0.00,0.00,VWS V14.01,2013-03-19 04:01:00,
2013-03-18 22:02:00,51.4,5.3,30.04,North,351,2.0,2.0,15,0.00,,FEW250,0.00,0.00,VWS V14.01,2013-03-19 04:02:00,
2013-03-18 22:07:00,51.0,5.0,30.04,North,351,0.0,1.0,15,0.00,,FEW250,0.00,0.00,VWS V14.01,2013-03-19 04:07:00,
2013-03-18 22:12:00,50.5,6.0,30.04,North,351,0.0,2.0,16,0.00,,FEW250,0.00,0.00,VWS V14.01,2013-03-19 04:12:00,
2013-03-18 22:17:00,50.1,5.7,30.04,North,351,1.0,2.0,16,0.00,,FEW250,0.00,0.00,VWS V14.01,2013-03-19 04:17:00,
2013-03-18 22:22:00,49.7,5.3,30.04,North,351,0.0,3.0,16,0.00,,FEW250,0.00,0.00,VWS V14.01,2013-03-19 04:22:00,
2013-03-18 22:27:00,49.2,4.9,30.04,North,351,0.0,3.0,16,0.00,,FEW250,0.00,0.00,VWS V14.01,2013-03-19 04:27:00,
2013-03-18 22:32:00,49.0,4.8,30.04,North,351,0.0,0.0,16,0.00,,FEW250,0.00,0.00,VWS V14.01,2013-03-19 04:32:00,
2013-03-18 22:37:00,48.8,4.6,30.04,North,351,0.0,0.0,16,0.00,,FEW250,0.00,0.00,VWS V14.01,2013-03-19 04:37:00,
2013-03-18 22:43:00,48.6,4.4,30.04,North,351,0.0,1.0,16,0.00,,FEW250,0.00,0.00,VWS V14.01,2013-03-19 04:43:00,
2013-03-18 22:48:00,48.2,5.4,30.04,North,351,0.0,2.0,17,0.00,,FEW250,0.00,0.00,VWS V14.01,2013-03-19 04:48:00,
2013-03-18 22:53:00,47.8,13.7,30.04,North,351,0.0,2.0,25,0.00,,FEW250,0.00,0.00,VWS V14.01,2013-03-19 04:53:00,
2013-03-18 22:58:00,47.5,10.6,30.04,North,351,0.0,2.0,22,0.00,,FEW250,0.00,0.00,VWS V14.01,2013-03-19 04:58:00,
2013-03-18 23:03:00,47.2,8.2,30.05,North,351,0.0,1.0,20,0.00,,FEW250,0.00,0.00,VWS V14.01,2013-03-19 05:03:00,
2013-03-18 23:08:00,46.9,5.6,30.04,North,351,0.0,0.0,18,0.00,,FEW250,0.00,0.00,VWS V14.01,2013-03-19 05:08:00,
2013-03-18 23:13:00,46.8,7.9,30.04,North,351,1.0,2.0,20,0.00,,FEW250,0.00,0.00,VWS V14.01,2013-03-19 05:13:00,
2013-03-18 23:18:00,46.5,8.7,30.04,North,351,0.0,3.0,21,0.00,,FEW250,0.00,0.00,VWS V14.01,2013-03-19 05:18:00,
2013-03-18 23:23:00,46.3,7.4,30.04,North,351,0.0,1.0,20,0.00,,FEW250,0.00,0.00,VWS V14.01,2013-03-19 05:23:00,
2013-03-18 23:28:00,46.1,7.3,30.04,North,351,1.0,2.0,20,0.00,,FEW250,0.00,0.00,VWS V14.01,2013-03-19 05:28:00,
2013-03-18 23:33:00,45.9,7.1,30.04,NNW,339,0.0,4.0,20,0.00,,FEW250,0.00,0.00,VWS V14.01,2013-03-19 05:33:00,
2013-03-18 23:38:00,45.7,5.8,30.04,NNW,339,0.0,2.0,19,0.00,,FEW250,0.00,0.00,VWS V14.01,2013-03-19 05:38:00,
2013-03-18 23:43:00,45.6,4.6,30.04,NNW,339,0.0,2.0,18,0.00,,FEW250,0.00,0.00,VWS V14.01,2013-03-19 05:43:00,
2013-03-18 23:48:00,45.4,6.7,30.04,NNW,339,0.0,3.0,20,0.00,,FEW250,0.00,0.00,VWS V14.01,2013-03-19 05:48:00,
2013-03-18 23:53:00,45.3,5.5,30.04,NNW,339,0.0,0.0,19,0.00,,FEW250,0.00,0.00,VWS V14.01,2013-03-19 05:53:00,
2013-03-18 23:58:00,45.2,5.4,30.04,NNW,339,0.0,0.0,19,0.00,,FEW250,0.00,0.00,VWS V14.01,2013-03-19 05:58:00,